Location: West Cummington
(42.4920°N, 72.9680°W)
Time: 18:23:21
(UTC-04:00)

ATLAS 2AS CENTAUR R/B - Visible Passes

Search period start: 29 March 2015 00:00
Search period end: 08 April 2015 00:00
Orbit: 915 x 1298 km, 63.7° (Epoch: 19 March)

Date Brightness Start Highest point End Pass type
(mag) Time Alt. Az. Time Alt. Az. Time Alt. Az.
29 Mar 4.3 19:50:33 10° NW 19:58:07 44° WSW 20:05:15 10° S visible
30 Mar 5.6 21:00:01 10° WNW 21:03:18 12° WSW 21:05:57 10° WSW visible
31 Mar 5.3 20:13:10 10° WNW 20:19:00 22° WSW 20:24:20 10° SSW visible
03 Apr 5.6 19:50:48 10° WNW 19:55:24 16° WSW 19:59:26 10° SW visible
